Orbital Elements at Epoch 2455072.5 (2009-Aug-29.0) TDB
Reference: JPL 51 (heliocentric ecliptic J2000)
Element | Value | Uncertainty (1-sigma) | Units |
e | .2906392019630723 | 1.015e-07 | |
a | 4.283706862364677 | 8.7533e-08 | au |
q | 3.038693718443271 | 4.7275e-07 | au |
i | 5.191035413678438 | 8.0316e-06 | deg |
node | 244.0747717582044 | 8.0591e-05 | deg |
peri | 181.0994002470446 | 9.4066e-05 | deg |
M | 173.3366942404771 | 3.101e-05 | deg |
tp | 2453513.248925846395 (2005-May-22.74892585) | 0.00028472 | TDB |
period | 3238.381746893945 8.87 | 9.9259e-05 2.718e-07 | d yr |
n | .1111666344912207 | 3.4073e-09 | deg/d |
Q | 5.528720006286084 | 1.1297e-07 | au |
|
Additional Model Parameters
Parameter | Value | Uncertainty (1-sigma) |
A1 [EST] | 2.869568668291466E-8 | 7.115E-9 |
A2 [EST] | 9.82989861460121E-9 | 2.073E-10 |
|
| | Orbit Determination Parameters
Additional Information
|